map of CPH home
CPH - Airport
Location
City:  Copenhagen, Denmark
Near (Alt.):København
Name:København Airport - Kastrup
ICAO:EKCH
IATA:CPH

Details
Type:Airport (Aerodrome, Airfield)
Latitude:55°37'05"N (55.617917)
Longitude:12°39'21"E (12.655972)
Elevation:17 ft (5 m)
Variation:3.58°E (WMM2015 magnetic declination)
0.15° annual change
Runways:3
Longest:11811 × 148 ft (3600 × 45 m), paved

Time
Time Zone:UTC+1 (DST+2)
Local Time:

Weather
METAR:EKCH 070820Z 20014KT 9999 FEW014 SCT060 BKN250 05/03 Q1028 NOSIG
TAF:EKCH 062305Z 0700/0724 16005KT 9999 FEW015 PROB40 0700/0703 3000 MIFG BR
BECMG 0703/0705 1200 BR BKN003
BECMG 0705/0707 8000 NSW FEW010
TEMPO 0707/0710 BKN010
BECMG 0714/0716 3000 -RADZ BR BKN004
TEMPO 0716/0724 2000 BKN006

Related Locations
Nearby:
Farthest:CHT: 11521 mi / 18541 km
Waitangi [Tuuta], CIT, NZ

Find:

   beyond  
but within

Other Information
Maps:
NOTAMs:
Links:
Sources:

  
flag of Denmark   

Sectional Chart

Flight Planning
at skyvector.com

Satellite Image

Google Maps Satellite view

 

Copyright © 2004-2016 Karl L. Swartz. All rights reserved.
The Great Circle Mapper name and logo are trademarks of the Great Circle Mapper.
All other trademarks mentioned herein belong to their respective owners.
Please see credits for attibutions and further copyright information.

  Follow gcmap on Facebook Follow gcmap on Twitter Follow gcmap on Google+ GCmap on LinkedIn

hCard Microformat

Geo Microformat